Location: Atbuku
(36.4936°N, 30.4362°E)
Time: 09:24:53
(UTC+00:00)

IRS-P3 - Pass Details

Date: 21 March 2026
Orbit: 810 x 816 km, 99.0° (Epoch: 20 April)

Event Time Altitude Azimuth Distance (km) Brightness Sun altitude
Rises 17:50:32 0° 220° (SW) 3,329 7.6 -20.6°
Reaches altitude 10° 17:55:19 10° 259° (WSW) 2,404 7.4 -21.5°
Maximum altitude 17:56:17 10° 269° (W) 2,372 7.5 -21.7°
Drops below altitude 10° 17:57:15 10° 280° (W) 2,406 7.7 -21.9°
Sets 18:02:05 0° 319° (NW) 3,345 8.3 -22.8°
